User: anonymous   Login
Location: Unspecified
(0.0000°N, 0.0000°E)
Time: 15:36:33
(UTC+00:00)
Language:

USA 252 - Orbit

View from above orbital plane
View from above orbital plane
View from above satellite
View from above satellite

Ground track
Ground track

The orbit data is extracted from the following two-line orbital elements,

1 39751U 14027A   17225.25436423 0.00000000  00000-0  00000-0 0    08
2 39751   2.7987 223.3815 0004034  68.4925 291.5721  1.00270000    06
Epoch (UTC): 13 August 2017 06:06:17
Eccentricity: 0.0004034
inclination: 2.7987°
perigee height: 35770 km
apogee height: 35804 km
right ascension of ascending node: 223.3815°
argument of perigee: 68.4925°
revolutions per day: 1.00270000
mean anomaly at epoch: 291.5721°
orbit number at epoch: 0

The dashed part of the orbit path shows where the satellite is in the earth's shadow,  

DLR